Flag for U.S.A. Weather past 2 weeks in El Paso, Texas, U.S.A.

Now
67 °F

Passing clouds.


Feels Like: 67 °F
Forecast: 68 / 79 °F
Wind: 10 mph from North

Location: El Paso International Airport

Current Time: Sep 18, 2014 at 3:56:52 AM

Latest Report: Sep 18, 2014 at 2:51 AM


Visibility: 7 mi

Pressure: 29.79 "Hg

Humidity: 87%

Dew point: 63 °F

Location of El PasoLocation

Historic Weather in El Paso — Graph

°F

El Paso temperature yesterday

Maximum temperature yesterday: 83 °F (at 2:51 PM)
Minimum temperature yesterday: 66 °F (at 11:51 PM)
Average temperature yesterday: 73 °F

Past Weeks' High & Low Weather Summary

 TemperatureHumidityPressure
High99 °F (Sep 3, 3:51 PM)97% (Sep 17, 8:51 PM)30.20 "Hg (Sep 17, 8:51 PM)
Low56 °F (Sep 13, 6:51 AM)11% (Sep 3, 3:51 PM)29.61 "Hg (Sep 3, 4:51 PM)
Average74 °F59%29.89 "Hg
* Reported Sep 3 1:51 AM — Sep 18 1:51 AM, El Paso, Weather by CustomWeather, © 2014

Note: Actual official high and low records may vary slightly from our data, if they occured in-between our weather recording intervals... More about our weather records

Advertising

El Paso weather history for previous 24 hours

 ConditionsComfort  
Time TempWeatherWind HumidityBarometerVisibility
1:51 AM
Sep 18
67 °FPartly cloudy.15 mph90%29.80 "Hg10 mi
12:51 AM66 °FPassing clouds.14 mph93%29.82 "Hg7 mi
11:51 PM
Sep 17
66 °FLight rain. Mostly cloudy.15 mph93%29.83 "Hg4 mi
10:51 PM67 °FOvercast.5 mph90%29.86 "Hg10 mi
9:51 PM69 °FOvercast.13 mph90%29.84 "Hg10 mi
8:51 PM67 °FStrong thunderstorms. Mostly cloudy.13 mph97%29.85 "Hg0 mi
8:04 PM77 °FThunderstorms. Cloudy.16 mph69%29.93 "Hg10 mi
7:51 PM78 °FBroken clouds.15 mph62%29.75 "Hg10 mi
6:51 PM80 °FBroken clouds.16 mph56%29.73 "Hg10 mi
5:51 PM81 °FBroken clouds.14 mph53%29.73 "Hg10 mi
4:51 PM82 °FBroken clouds.13 mph51%29.73 "Hg10 mi
3:51 PM83 °FBroken clouds.5 mph50%29.75 "Hg10 mi
2:51 PM83 °FScattered clouds.7 mph51%29.78 "Hg10 mi
1:51 PM80 °FPartly sunny.7 mph54%29.82 "Hg10 mi
12:51 PM78 °FBroken clouds.9 mph60%29.85 "Hg10 mi
11:51 AM76 °FBroken clouds.7 mph64%29.87 "Hg10 mi
10:51 AM75 °FScattered clouds.5 mph69%29.88 "Hg10 mi
9:51 AM70 °FBroken clouds.3 mph79%29.91 "Hg10 mi
8:51 AM69 °FPartly sunny.8 mph84%29.90 "Hg10 mi
7:51 AM68 °FLight rain. Partly sunny.7 mph87%29.90 "Hg10 mi
6:51 AM68 °FLight rain. Overcast.8 mph87%29.88 "Hg10 mi
5:51 AM68 °FLight rain. Mostly cloudy.9 mph84%29.86 "Hg10 mi
4:51 AM69 °FPassing clouds.12 mph81%29.85 "Hg10 mi
3:51 AM69 °FPartly cloudy.12 mph81%29.86 "Hg10 mi
Weather by CustomWeather, © 2014

See weather overviewHow to use our weather pages